Dewpoint
66 71 72 71 71 71 70 70 70 70 71 71 71 71 71 72 72 71 71 71 70 69 68 69 68 67 65 66 67 68 68 68 67 67 65 64 66 67 68 69 69 69 69
67 71 71 71 71 71 70 70 70 71 71 71 71 71 71 71 71 71 70 70 69 68 68 69 68 67 65 66 67 67 67 67 67 67 66 64 65 67 68 68 69 69 69
69 71 71 71 71 71 71 71 71 71 71 71 71 71 70 70 70 70 70 70 69 68 68 68 67 65 65 65 65 65 66 67 67 67 66 65 65 65 67 68 68 68 68
70 70 70 70 70 70 70 71 71 71 71 71 71 71 71 71 70 70 70 70 69 68 68 67 66 65 66 67 67 67 67 66 65 65 66 62 64 65 66 67 67 67 67
70 70 70 70 70 70 71 71 71 71 71 71 71 71 71 71 70 70 70 69 69 68 67 67 66 66 66 67 66 64 63 62 60 64 64 61 63 64 65 66 67 68 68
70 70 70 70 70 70 71 71 71 71 71 71 71 71 71 70 70 69 69 70 69 68 67 67 66 66 65 64 63 61 60 59 58 60 60 63 63 63 64 65 67 67 68
69 70 70 70 70 70 71 71 71 70 70 71 71 71 70 70 69 69 69 69 69 69 68 67 66 65 64 62 60 58 57 57 58 61 62 64 65 64 63 64 65 66 67
69 69 70 70 70 70 71 71 70 70 70 70 70 70 70 69 68 68 69 68 68 68 66 65 63 62 61 58 56 55 57 57 57 62 63 65 65 64 63 63 64 65 66
69 69 69 70 70 70 70 70 69 69 70 70 70 70 69 68 68 68 68 67 66 65 63 62 60 59 58 57 55 56 57 59 55 63 63 65 66 64 64 64 64 64 64
69 69 68 69 70 70 70 69 69 69 69 69 69 69 68 67 67 67 67 66 64 63 61 61 59 58 58 57 57 57 58 58 55 58 62 65 66 65 65 64 64 64 64
67 67 68 68 69 70 69 69 69 69 69 69 69 68 67 67 67 67 66 65 63 62 61 60 59 58 58 58 59 59 59 57 55 64 64 66 66 65 65 65 65 65 64
66 66 67 67 67 68 69 69 69 68 68 69 69 68 67 67 67 66 66 65 63 62 61 60 59 59 59 59 58 58 57 56 56 63 64 66 67 66 65 65 65 65 65
65 67 67 67 67 67 67 68 68 68 68 68 68 67 66 66 67 66 65 64 63 62 61 60 60 60 59 58 58 59 59 57 56 64 65 66 68 67 66 66 66 66 66
64 65 67 68 67 68 67 67 67 67 67 67 67 66 65 65 65 64 64 63 61 61 59 59 59 59 59 59 59 60 60 58 58 64 65 66 68 68 67 67 67 67 66
62 64 66 68 68 68 67 67 67 66 66 66 66 65 64 64 64 64 63 63 61 61 59 58 59 59 60 60 61 61 60 58 58 63 64 65 66 67 67 66 67 68 66
62 63 65 67 67 67 67 67 66 66 66 66 66 65 64 65 63 63 63 62 62 61 59 59 60 61 62 63 63 62 59 59 55 62 62 64 64 64 65 66 67 67 67
62 63 63 65 66 66 66 66 65 65 65 65 65 65 64 65 63 63 63 62 62 62 61 60 62 63 63 63 63 62 61 60 58 58 61 60 61 61 63 65 66 66 65
62 62 63 63 64 65 64 64 64 64 65 64 65 66 64 64 65 63 63 62 62 61 62 61 61 62 63 63 63 63 62 62 61 59 60 60 60 60 61 63 64 64 64
62 62 63 63 63 63 64 63 63 64 64 64 65 66 66 65 65 64 62 63 61 61 61 61 61 63 63 63 62 63 63 63 63 62 61 60 61 61 60 61 60 62 62
62 62 63 64 64 63 65 64 63 64 64 64 65 66 66 66 65 65 63 62 62 61 61 61 61 62 62 62 62 63 63 64 64 63 63 62 61 61 61 61 61 60 61
61 62 63 63 64 64 63 65 64 63 64 64 66 66 66 66 66 65 64 62 62 61 60 60 60 60 62 63 62 60 60 62 63 63 62 62 61 61 61 60 59 53 50
61 62 63 63 65 64 64 64 65 64 65 66 66 67 67 66 66 66 64 63 62 60 59 60 60 61 62 62 59 58 56 57 58 62 62 60 57 50 47 53 51 46 44
60 62 62 63 65 65 64 64 65 64 65 65 65 66 67 67 66 65 65 63 62 61 59 60 61 61 60 62 60 58 56 53 54 56 57 54 51 47 49 52 45 41 41
59 61 62 63 65 66 65 63 63 63 63 64 65 65 66 66 66 66 65 64 63 61 60 60 62 62 61 60 61 61 59 56 51 52 46 42 43 42 45 45 43 42 42
58 60 62 62 64 65 65 64 63 62 63 63 63 64 64 66 65 65 65 65 63 62 61 60 62 62 61 60 60 60 58 57 54 50 43 40 41 42 44 46 42 41 41
56 58 61 62 62 64 65 64 63 62 62 62 62 63 63 64 65 65 64 64 63 62 61 61 62 62 62 61 60 60 58 56 54 51 45 43 37 42 44 44 41 40 41
Wind_Speed
22 23 23 26 26 26 24 24 24 24 24 24 25 25 25 24 23 23 22 21 20 19 18 17 16 16 17 18 18 18 16 15 16 16 16 18 18 18 16 15 14 14 15
31 27 25 28 28 26 25 24 24 25 24 23 22 23 23 23 23 22 21 20 19 18 17 16 16 15 16 17 15 15 15 13 14 15 15 17 17 17 16 15 14 15 15
28 26 25 29 30 28 26 25 24 24 25 25 23 21 21 22 22 21 20 19 18 17 16 15 13 13 15 14 14 13 12 8 7 9 11 11 13 16 16 15 15 16 15
24 23 23 29 30 29 27 26 24 24 24 24 25 22 20 20 20 20 19 18 17 16 15 13 12 11 12 12 11 12 8 6 2 2 3 5 13 16 16 15 15 15 15
24 20 21 26 28 28 26 26 25 23 23 23 24 23 21 19 19 19 19 18 16 16 14 12 11 8 8 9 9 9 8 8 10 11 8 6 9 15 15 14 14 15 15
22 21 23 24 26 27 27 26 25 24 22 22 22 22 21 20 18 18 18 18 17 15 14 12 10 7 5 5 7 6 8 10 10 14 11 7 10 16 15 14 14 14 14
20 21 24 23 24 25 26 25 25 25 23 21 21 22 20 20 19 18 17 17 16 15 14 12 9 6 4 2 5 5 9 10 10 12 11 9 12 16 16 14 14 13 13
26 21 23 22 23 24 24 24 25 25 23 21 20 21 19 20 19 17 16 16 15 15 14 12 9 6 3 1 3 5 9 10 9 11 10 5 13 14 15 14 13 13 12
20 22 22 20 21 24 24 25 25 25 24 22 20 20 20 19 19 17 16 15 15 14 13 12 10 7 4 1 2 6 8 8 6 8 9 7 10 12 13 14 13 12 11
20 20 22 22 20 20 21 26 26 25 24 23 21 19 20 19 19 18 17 15 14 13 12 10 9 7 4 2 3 6 8 5 2 3 7 9 9 11 11 12 12 11 10
19 19 20 21 21 18 17 21 25 26 25 23 20 19 18 14 15 17 15 15 14 13 12 10 8 7 4 2 5 7 7 5 4 4 12 13 11 10 10 10 11 10 8
23 21 21 22 22 20 16 18 17 18 17 16 15 17 13 14 14 13 15 16 14 12 12 10 8 5 2 2 4 5 5 3 4 9 11 15 13 11 10 10 10 9 7
24 20 22 23 21 21 19 17 14 14 15 14 16 16 15 13 13 12 12 11 12 12 10 9 7 5 5 5 4 5 6 3 1 10 9 12 12 12 11 10 9 8 7
24 23 21 22 23 20 18 18 17 16 15 15 16 17 16 14 14 14 14 13 12 11 11 9 7 7 7 7 7 6 7 4 4 9 11 14 12 12 11 11 9 9 7
25 23 23 21 21 18 19 17 17 17 17 16 16 17 15 15 16 15 15 14 14 12 11 10 9 9 9 8 9 8 8 5 6 10 11 13 13 12 11 10 7 8 6
26 26 25 24 20 20 20 19 19 17 18 16 17 19 20 16 17 16 15 15 15 15 14 13 13 12 11 8 10 11 8 4 7 9 11 13 15 13 11 9 8 7 7
30 30 30 28 24 23 21 20 19 19 19 19 18 19 20 18 18 17 16 15 15 16 15 13 13 11 10 10 11 12 7 7 7 10 14 14 13 15 12 9 8 7 6
29 33 32 28 30 27 23 21 20 19 19 19 18 18 21 20 18 18 17 17 16 15 14 14 13 13 13 13 10 11 9 7 8 9 11 12 11 9 11 9 6 6 4
34 32 31 31 33 31 24 22 20 20 19 19 18 18 21 21 22 19 18 17 17 16 15 15 14 12 15 13 12 7 9 9 11 9 12 8 8 10 8 11 11 1 8
34 34 34 32 32 30 24 21 18 18 20 19 20 21 22 20 20 17 18 19 18 17 17 15 16 11 10 15 8 7 8 11 10 10 8 3 7 8 8 7 10 18 21
33 34 33 32 31 28 25 26 24 26 23 21 21 23 23 21 19 20 17 19 19 20 18 18 10 10 7 7 4 0 2 4 6 7 2 2 2 10 11 13 14 12 16
35 36 34 35 34 34 29 27 21 22 19 19 16 19 24 22 21 21 19 19 19 18 18 17 13 7 6 9 5 4 1 4 3 4 2 8 12 15 16 17 16 15 15
37 37 37 36 37 36 33 24 16 13 11 15 18 21 23 25 24 25 19 19 19 18 21 19 16 16 11 7 5 5 3 6 3 8 10 12 14 17 16 15 16 16 16
40 36 39 38 37 35 32 30 32 32 26 26 22 19 21 22 24 23 20 19 20 17 19 20 17 16 13 13 4 2 3 4 4 5 8 11 13 15 15 14 15 15 15
40 37 36 39 37 36 36 36 34 31 30 22 19 19 20 20 22 22 22 21 20 20 19 21 19 17 14 15 11 6 4 2 4 4 7 7 12 13 13 14 13 13 13
36 37 36 38 38 37 37 36 37 38 30 25 24 23 23 19 20 21 23 24 23 20 22 21 19 20 20 17 13 13 11 9 8 7 6 6 13 10 13 12 13 14 13
Wind_Direction
165 165 166 141 135 130 127 126 121 115 109 107 108 109 109 110 109 106 103 101 102 104 105 106 105 102 100 97 95 95 93 92 89 85 83 83 80 75 70 62 68 71 77
150 160 160 143 136 133 134 131 126 121 116 112 109 110 110 109 106 105 103 104 106 109 109 106 103 106 103 97 96 93 92 94 97 90 89 85 83 82 79 69 68 72 74
147 154 156 143 140 139 140 135 131 129 127 124 119 116 115 115 113 112 113 113 113 115 113 111 112 110 105 102 97 93 92 96 112 67 92 94 89 80 74 69 66 71 73
145 152 155 146 143 142 142 139 138 136 133 130 126 124 122 121 121 121 120 119 120 120 117 119 117 110 109 104 95 84 79 59 12 211 145 91 100 88 84 77 73 70 73
143 150 153 146 144 143 144 143 142 141 139 137 134 132 130 129 129 128 126 123 123 122 126 123 118 118 105 98 71 59 56 34 33 132 135 119 106 96 89 83 76 71 67
143 147 148 147 146 147 147 145 144 144 144 142 138 136 136 135 133 130 129 127 126 127 126 121 118 118 106 78 80 65 50 38 54 121 128 139 116 110 101 93 86 80 75
138 142 152 150 148 149 150 149 149 148 149 147 143 140 141 137 137 137 136 130 129 126 124 122 125 124 109 53 32 38 48 41 54 130 131 141 125 116 109 102 94 86 81
139 146 155 151 150 152 152 152 151 152 151 151 148 144 144 142 142 140 136 133 131 130 131 131 138 137 141 90 1 351 56 44 57 132 131 148 130 118 111 100 92 86 80
137 147 155 153 155 157 156 156 156 155 154 155 153 151 149 147 145 143 141 140 136 140 142 144 150 149 162 136 337 337 21 58 64 136 143 151 136 122 114 109 99 90 84
142 148 157 163 162 163 163 161 159 157 158 158 158 156 152 152 150 148 147 148 147 149 148 154 160 155 169 227 304 327 345 47 40 233 167 159 149 131 124 113 105 96 83
148 154 159 165 168 165 163 165 161 160 160 161 160 159 155 153 155 152 154 156 159 157 159 166 169 174 194 261 305 310 329 2 3 119 155 165 159 145 134 125 112 100 91
161 164 162 165 168 168 170 166 161 160 160 161 163 160 160 160 157 159 162 165 164 167 171 173 180 197 218 268 297 315 313 1 332 167 166 172 168 154 147 139 125 120 113
165 165 169 164 166 168 168 168 167 163 161 163 165 165 164 165 163 165 167 172 169 176 180 184 193 207 222 243 263 281 289 348 189 169 175 180 178 161 159 155 150 143 139
170 169 169 168 167 168 165 171 171 168 167 169 173 171 168 170 172 172 174 181 180 186 190 193 203 213 230 243 251 272 271 180 224 170 179 190 192 177 178 175 169 164 163
170 172 171 168 169 161 167 171 169 173 173 175 173 177 175 171 178 176 183 183 192 192 197 201 212 224 229 235 254 256 245 170 138 166 181 196 200 197 192 184 178 172 182
172 175 172 172 171 166 173 174 175 173 177 175 179 185 184 179 180 183 185 190 196 201 199 204 212 218 229 228 237 232 214 187 155 169 183 202 208 209 208 193 187 187 202
181 172 177 175 172 175 177 176 178 180 178 183 186 187 190 187 184 184 186 193 202 200 200 203 215 228 229 237 241 219 210 225 179 183 194 202 209 213 210 207 200 199 212
178 179 178 177 179 178 179 182 183 186 183 187 191 192 193 194 190 186 189 196 203 196 199 200 207 224 224 218 204 209 215 213 221 189 201 219 213 210 211 202 202 229 258
184 182 180 181 183 180 178 182 185 188 190 190 191 197 200 196 197 192 193 197 197 198 204 204 208 204 197 203 208 208 212 222 238 232 220 213 214 212 199 197 189 216 22
186 185 184 182 182 180 177 177 186 188 196 195 195 197 198 201 200 198 197 196 192 190 205 194 187 191 183 194 197 211 233 230 243 244 251 208 200 194 171 162 100 77 76
189 185 185 184 182 177 182 182 188 195 197 199 198 195 198 199 194 197 201 200 190 189 188 189 189 194 190 173 159 117 283 265 249 252 254 276 123 89 97 103 98 91 74
190 189 187 187 181 185 187 189 191 195 201 200 194 194 198 198 192 194 194 198 196 192 194 189 185 163 187 167 153 118 226 281 290 14 99 112 100 97 92 90 96 92 86
192 190 189 187 186 188 191 183 173 166 159 185 189 193 194 194 191 197 195 193 197 194 198 192 190 185 176 190 185 156 163 219 115 29 61 85 96 92 94 95 91 86 84
195 192 188 188 187 189 185 185 184 187 193 203 198 198 197 195 193 192 195 197 199 199 197 196 190 192 173 172 157 145 111 143 147 124 47 65 74 92 105 99 96 91 88
195 192 191 190 188 187 185 188 189 193 203 192 197 190 195 197 201 200 198 196 200 199 200 197 192 190 182 175 170 159 150 129 106 141 150 132 80 61 77 97 96 91 91
198 195 190 190 192 189 188 190 192 198 195 192 189 190 197 198 203 201 200 203 202 198 196 200 194 189 193 185 183 174 170 170 183 163 151 149 127 53 72 81 83 82 78